Location: Saint-Palais-sur-Mer
(45.6429°N, 1.0859°W)
Time: 23:57:32
(UTC+01:00)

Tiros 1 despin weight - Pass Details

Date: 17 February 2026
Orbit: 556 x 593 km, 48.2° (Epoch: 13 March)

Event Time Altitude Azimuth Distance (km) Brightness Sun altitude
Rises 19:44:11 0° 282° (WNW) 2,733 ? -12.9°
Reaches altitude 10° 19:46:27 10° 286° (WNW) 1,838 ? -13.3°
Maximum altitude 19:50:36 66° 8° (N) 611 ? -14.0°
Enters shadow 19:52:56 25° 85° (E) 1,144 ? -14.4°
Drops below altitude 10° 19:54:48 10° 92° (E) 1,842 - -14.7°
Sets 19:57:04 0° 95° (E) 2,741 - -15.1°
